Location: Chavannes
(47.1090°N, 0.2226°W)
Time: 15:12:38
(UTC+00:00)

Gbstr 26 Del rocket - Pass Details

Date: 16 October 2021
Orbit: 492 x 1263 km, 51.8° (Epoch: 07 December)

Event Time Altitude Azimuth Distance (km) Brightness Sun altitude
Rises 19:31:38 0° 296° (WNW) 3,843 8.4 -24.5°
Reaches altitude 10° 19:34:11 10° 295° (WNW) 2,977 7.5 -24.9°
Maximum altitude 19:41:35 74° 212° (SSW) 1,263 4.5 -26.2°
Enters shadow 19:44:06 47° 142° (SE) 1,588 4.7 -26.6°
